Location: Unspecified
(44.0704°N, 88.6889°W)
Time: 00:06:10
(UTC+02:00)

Transit 2A - Pass Details

Date: 21 June 2019
Orbit: 594 x 964 km, 66.7° (Epoch: 20 July)

Event Time Altitude Azimuth Distance (km) Brightness Sun altitude
Rises 18:27:10 0° 316° (NW) 3,393 9.1 62.4°
Reaches altitude 10° 18:30:17 10° 301° (WNW) 2,382 8.4 62.8°
Maximum altitude 18:34:11 20° 255° (WSW) 1,680 7.9 63.3°
Drops below altitude 10° 18:37:49 10° 208° (SSW) 2,190 8.6 63.8°
Sets 18:40:33 0° 192° (SSW) 3,037 9.3 64.2°
